Simultaneous Nadir Overpasses (SNOs) Predictions

Prediction of SNOs between AQUA and GOES-15 Satellite Orbit:

Table of predicted SNOs for the next 14.0 days since TLE Epoch: 3/25/2023
Index Date Time (AQUA) AQUA Lat,Lon GOES-15 Lat,Lon Distance(km) Time Diff (sec)
1 03/25/2023 10:30:30 0.79,-130.95 0.14,-127.97 339.46 80
2 03/27/2023 10:16:50 0.08,-127.62 0.15,-128.03 46.78 80
3 03/29/2023 10:03:09 -0.65,-124.29 0.16,-128.09 433.06 80
4 03/29/2023 22:24:10 -0.44,-129.38 -0.15,-128.14 141.02 80
5 03/31/2023 22:10:27 0.27,-126.03 -0.16,-128.20 245.77 80
6 04/01/2023 10:31:19 0.77,-131.09 0.15,-128.18 330.55 80
7 04/03/2023 10:17:35 0.02,-127.75 0.16,-128.24 56.70 80
8 04/05/2023 10:03:49 -0.68,-124.39 0.16,-128.29 444.00 80
9 04/05/2023 22:24:49 -0.38,-129.48 -0.16,-128.33 130.05 80
10 04/07/2023 22:11:01 0.30,-126.11 -0.16,-128.38 257.41 80
